Temp
44 44 44 44 44 44 45 44 44 43 43 42 41 40 39 39 38 37 36 35 35 34 34 33 33 31 31 31 31 31 30 29 29 29 28 27 27 26 25 25 25 24
44 44 44 44 44 44 45 45 45 44 43 43 43 42 41 40 39 37 36 35 35 34 34 33 32 31 31 30 30 29 29 29 28 29 27 27 26 26 25 25 24 24
44 44 43 43 43 43 44 45 45 45 44 44 43 43 41 40 39 37 36 35 34 33 33 32 32 31 30 30 30 29 28 28 27 28 27 26 26 25 25 25 24 23
44 44 44 43 43 43 44 44 44 44 44 43 42 42 42 40 39 36 35 34 34 33 33 32 31 30 29 29 29 28 28 28 28 28 26 26 26 25 25 25 24 23
45 44 44 44 44 44 44 43 43 43 43 43 43 42 41 39 37 36 35 33 33 32 32 31 30 29 28 28 28 27 28 27 27 27 26 24 25 24 24 24 23 21
45 45 45 44 44 43 43 42 42 42 42 42 41 41 40 38 37 35 34 33 33 31 30 29 28 28 28 27 27 27 27 27 27 26 25 24 24 25 23 23 21 20
44 45 44 44 43 43 42 42 42 42 42 42 41 39 39 36 36 35 33 31 31 30 29 28 27 27 27 27 27 26 27 26 26 26 24 24 24 23 24 22 21 20
45 45 45 44 43 42 41 41 41 41 41 40 39 38 38 36 35 33 31 30 29 29 28 27 26 26 27 27 26 26 26 26 25 25 24 23 23 22 22 22 21 17
46 45 44 43 42 42 41 41 40 40 40 37 37 37 36 34 32 31 30 29 28 27 27 26 25 25 26 26 25 25 25 25 25 24 23 22 22 21 21 22 19 17
45 45 44 43 42 41 40 40 39 39 38 36 36 35 33 33 32 31 29 28 26 26 26 25 25 25 25 26 25 25 24 24 24 24 23 22 21 21 21 20 18 17
45 45 44 43 41 41 40 39 37 37 36 35 35 34 33 32 30 30 28 26 25 25 24 24 25 25 25 25 25 25 24 23 23 21 21 20 20 20 19 18 18 16
45 44 43 42 41 40 39 38 37 36 35 34 34 33 31 30 29 28 26 26 25 25 24 25 25 25 25 25 25 25 24 23 21 20 20 19 19 19 19 18 17 16
44 44 43 42 41 40 39 37 36 35 35 33 33 32 29 28 27 26 26 25 25 25 24 24 24 24 24 24 24 24 21 20 20 21 20 19 18 18 18 17 16 16
44 44 43 41 40 38 37 36 35 35 34 33 31 29 28 27 26 25 25 25 25 25 25 24 24 24 24 23 22 21 19 19 19 18 17 17 17 17 17 16 15 15
43 43 42 40 38 37 36 35 34 34 32 31 30 28 27 27 26 26 24 23 24 23 23 23 22 21 21 21 20 19 18 17 17 17 16 15 15 15 15 14 14 14
41 40 38 37 36 35 34 33 32 31 30 29 27 27 25 26 25 24 22 21 21 21 21 21 20 20 21 21 21 18 17 15 15 14 14 13 12 12 12 13 12 12
37 36 35 34 34 33 32 30 30 29 28 26 25 24 23 22 22 21 20 20 20 19 18 18 18 18 21 23 23 22 17 14 13 13 12 11 11 10 10 10 11 11
35 34 32 31 31 31 30 29 28 26 25 24 22 22 21 20 20 19 19 18 18 17 17 17 16 19 22 23 23 23 20 14 13 12 11 10 9 9 9 9 9 9
33 32 31 30 30 28 28 25 24 23 22 21 20 20 20 18 18 18 17 17 16 16 15 16 15 19 22 22 22 23 23 20 16 15 13 11 10 9 9 9 10 10
32 31 29 28 27 27 26 23 22 20 21 20 19 18 17 17 17 16 16 15 15 14 14 14 13 17 21 22 22 22 22 21 17 16 15 14 12 10 10 10 10 10
30 28 26 26 25 24 22 21 20 20 19 18 18 17 16 15 15 15 14 13 13 13 13 12 12 17 20 21 21 22 22 21 17 16 15 14 14 13 12 12 11 10
27 26 25 22 22 21 20 19 19 17 17 18 17 17 16 16 16 15 13 12 12 11 11 10 11 17 19 20 20 21 21 18 16 15 14 13 13 13 13 13 13 12
25 23 22 21 21 19 17 17 16 16 17 17 15 16 15 15 14 14 14 12 11 10 9 9 9 14 18 19 20 20 19 16 14 14 13 12 12 12 13 13 13 13
24 22 21 20 18 17 17 17 17 17 16 16 15 15 14 14 14 14 13 13 11 9 9 8 8 11 16 18 19 19 18 14 13 12 11 11 11 12 12 12 12 13
22 21 20 18 17 16 16 16 16 16 16 15 15 15 14 14 14 13 12 12 11 10 11 9 8 10 14 16 18 18 17 14 13 11 10 9 10 10 11 11 11 12
21 19 19 18 16 16 16 16 17 16 15 14 14 14 14 14 13 12 11 11 11 9 8 9 7 7 9 15 16 17 18 14 12 10 8 8 9 9 8 9 10 9
MSLP
1018.31 1018.55 1018.63 1018.75 1018.75 1018.83 1019.03 1019.19 1019.27 1019.51 1019.75 1020.03 1020.31 1020.63 1021.11 1021.55 1022.15 1022.67 1023.11 1023.59 1023.91 1024.31 1024.67 1025.07 1025.43 1025.83 1026.15 1026.51 1026.83 1027.15 1027.43 1027.71 1028.03 1028.23 1028.47 1028.75 1028.95 1029.23 1029.59 1029.79 1029.99 1030.11
1017.55 1017.71 1017.79 1018.03 1018.11 1018.23 1018.23 1018.31 1018.43 1018.59 1018.83 1019.15 1019.39 1019.83 1020.31 1020.83 1021.27 1021.75 1022.27 1022.79 1023.23 1023.59 1024.03 1024.43 1024.79 1025.23 1025.59 1025.95 1026.31 1026.67 1026.95 1027.23 1027.55 1027.75 1028.07 1028.23 1028.51 1028.79 1029.11 1029.43 1029.71 1029.91
1016.79 1017.03 1017.11 1017.11 1017.03 1017.15 1017.39 1017.67 1017.91 1018.07 1018.23 1018.35 1018.75 1019.11 1019.47 1019.99 1020.51 1021.03 1021.59 1022.07 1022.51 1022.99 1023.39 1023.79 1024.23 1024.63 1025.07 1025.39 1025.79 1026.15 1026.43 1026.71 1027.03 1027.27 1027.59 1027.79 1028.03 1028.31 1028.59 1028.95 1029.23 1029.51
1015.71 1015.83 1015.99 1016.19 1016.47 1016.67 1016.91 1017.27 1017.35 1017.55 1017.71 1017.91 1018.03 1018.31 1018.71 1019.27 1019.83 1020.43 1020.99 1021.55 1021.91 1022.35 1022.83 1023.23 1023.67 1024.15 1024.59 1024.99 1025.35 1025.67 1025.95 1026.19 1026.43 1026.79 1027.11 1027.35 1027.59 1027.87 1028.11 1028.39 1028.71 1029.03
1014.75 1015.03 1015.23 1015.47 1015.71 1016.03 1016.39 1016.59 1016.71 1016.87 1017.03 1017.19 1017.63 1017.99 1018.31 1018.79 1019.31 1019.87 1020.43 1020.95 1021.35 1021.83 1022.35 1022.75 1023.23 1023.71 1024.15 1024.63 1024.95 1025.27 1025.51 1025.79 1025.95 1026.31 1026.55 1026.87 1027.11 1027.43 1027.75 1028.03 1028.31 1028.59
1014.11 1014.27 1014.47 1014.71 1014.95 1015.35 1015.63 1015.79 1015.95 1016.27 1016.55 1016.83 1017.03 1017.43 1017.83 1018.39 1018.83 1019.31 1019.83 1020.39 1020.87 1021.39 1021.91 1022.47 1022.95 1023.43 1023.79 1024.23 1024.59 1024.79 1025.03 1025.23 1025.39 1025.79 1026.11 1026.31 1026.59 1026.83 1027.27 1027.63 1027.95 1028.27
1013.43 1013.59 1013.79 1014.07 1014.43 1014.71 1014.91 1015.11 1015.43 1015.67 1015.91 1016.19 1016.67 1016.99 1017.43 1017.95 1018.31 1018.75 1019.31 1019.95 1020.51 1021.03 1021.55 1022.07 1022.55 1023.03 1023.43 1023.87 1024.11 1024.35 1024.63 1024.79 1024.91 1025.23 1025.63 1025.83 1026.07 1026.39 1026.67 1027.11 1027.51 1027.83
1012.79 1013.07 1013.27 1013.51 1013.83 1014.07 1014.31 1014.51 1014.79 1015.07 1015.43 1015.87 1016.19 1016.55 1016.95 1017.43 1017.87 1018.39 1018.99 1019.59 1020.15 1020.63 1021.15 1021.67 1022.15 1022.59 1022.99 1023.39 1023.63 1023.87 1024.19 1024.27 1024.47 1024.71 1025.03 1025.39 1025.59 1025.91 1026.19 1026.51 1026.95 1027.35
1012.31 1012.51 1012.67 1012.95 1013.23 1013.43 1013.67 1013.91 1014.27 1014.63 1015.07 1015.51 1015.91 1016.27 1016.75 1017.23 1017.63 1018.11 1018.67 1019.27 1019.79 1020.23 1020.75 1021.23 1021.71 1022.19 1022.51 1022.83 1023.07 1023.39 1023.59 1023.71 1023.95 1024.27 1024.51 1024.83 1025.07 1025.35 1025.71 1026.03 1026.43 1026.75
1011.75 1011.87 1012.15 1012.39 1012.63 1012.83 1013.11 1013.47 1013.95 1014.35 1014.79 1015.23 1015.55 1015.99 1016.51 1016.99 1017.39 1017.83 1018.39 1018.87 1019.39 1019.91 1020.35 1020.79 1021.23 1021.67 1021.99 1022.27 1022.59 1022.91 1023.11 1023.27 1023.47 1023.79 1024.07 1024.31 1024.63 1024.87 1025.23 1025.59 1025.91 1026.35
1011.15 1011.35 1011.55 1011.83 1012.07 1012.39 1012.79 1013.23 1013.67 1014.11 1014.51 1014.87 1015.31 1015.67 1016.11 1016.59 1017.15 1017.55 1018.07 1018.55 1019.03 1019.43 1019.95 1020.39 1020.71 1021.11 1021.47 1021.75 1022.11 1022.39 1022.63 1022.87 1023.15 1023.39 1023.67 1023.95 1024.23 1024.51 1024.83 1025.15 1025.51 1025.79
1010.67 1010.91 1011.11 1011.35 1011.71 1012.11 1012.51 1012.91 1013.39 1013.83 1014.19 1014.55 1014.95 1015.35 1015.87 1016.27 1016.75 1017.23 1017.67 1018.19 1018.67 1019.11 1019.55 1019.95 1020.27 1020.59 1020.95 1021.31 1021.63 1021.91 1022.23 1022.51 1022.83 1023.11 1023.35 1023.63 1023.87 1024.15 1024.51 1024.83 1025.15 1025.39
1010.27 1010.47 1010.71 1011.03 1011.43 1011.83 1012.23 1012.63 1013.03 1013.43 1013.79 1014.19 1014.59 1015.07 1015.59 1016.11 1016.55 1016.99 1017.47 1017.91 1018.35 1018.79 1019.15 1019.47 1019.79 1020.15 1020.55 1020.91 1021.27 1021.55 1021.83 1022.15 1022.51 1022.79 1023.07 1023.31 1023.55 1023.87 1024.19 1024.51 1024.83 1025.07
1009.99 1010.15 1010.51 1010.91 1011.27 1011.67 1012.03 1012.43 1012.79 1013.15 1013.55 1014.03 1014.51 1014.95 1015.35 1015.75 1016.23 1016.67 1017.19 1017.63 1017.99 1018.35 1018.71 1019.07 1019.47 1019.79 1020.15 1020.55 1020.91 1021.23 1021.59 1021.91 1022.19 1022.47 1022.71 1022.95 1023.23 1023.55 1023.87 1024.19 1024.47 1024.71
1009.91 1010.15 1010.47 1010.83 1011.27 1011.59 1011.91 1012.27 1012.63 1013.03 1013.43 1013.91 1014.35 1014.71 1015.11 1015.51 1015.95 1016.43 1016.91 1017.35 1017.67 1018.03 1018.39 1018.75 1019.15 1019.47 1019.79 1020.19 1020.63 1020.99 1021.31 1021.67 1021.95 1022.15 1022.43 1022.71 1023.03 1023.31 1023.59 1023.87 1024.15 1024.39
1010.07 1010.35 1010.67 1010.91 1011.27 1011.55 1011.87 1012.23 1012.63 1013.07 1013.51 1013.87 1014.27 1014.59 1014.99 1015.39 1015.83 1016.19 1016.59 1017.03 1017.39 1017.79 1018.15 1018.51 1018.87 1019.19 1019.55 1019.91 1020.23 1020.71 1021.11 1021.47 1021.83 1022.03 1022.27 1022.59 1022.95 1023.23 1023.47 1023.63 1023.87 1024.03
1010.35 1010.55 1010.83 1011.03 1011.31 1011.67 1011.99 1012.35 1012.79 1013.11 1013.51 1013.87 1014.27 1014.59 1014.95 1015.31 1015.67 1016.11 1016.47 1016.79 1017.11 1017.51 1017.95 1018.31 1018.67 1019.03 1019.35 1019.59 1019.87 1020.27 1020.91 1021.35 1021.71 1021.91 1022.15 1022.47 1022.75 1023.07 1023.27 1023.43 1023.55 1023.75
1010.47 1010.67 1010.99 1011.23 1011.47 1011.79 1012.11 1012.47 1012.79 1013.19 1013.51 1013.87 1014.27 1014.63 1014.95 1015.31 1015.59 1015.95 1016.35 1016.71 1017.07 1017.43 1017.79 1018.15 1018.51 1018.79 1019.07 1019.27 1019.55 1019.79 1020.31 1021.03 1021.39 1021.75 1021.99 1022.27 1022.55 1022.79 1022.95 1023.11 1023.23 1023.35
1010.55 1010.75 1010.99 1011.31 1011.59 1011.91 1012.19 1012.59 1012.91 1013.27 1013.51 1013.83 1014.19 1014.47 1014.87 1015.27 1015.59 1015.95 1016.31 1016.63 1016.99 1017.35 1017.67 1017.99 1018.39 1018.63 1018.79 1018.95 1019.23 1019.47 1019.63 1019.99 1020.47 1020.83 1021.31 1021.67 1021.91 1022.19 1022.43 1022.55 1022.59 1022.67
1010.63 1010.87 1011.19 1011.47 1011.75 1012.07 1012.39 1012.71 1012.99 1013.31 1013.55 1013.83 1014.23 1014.59 1014.95 1015.31 1015.63 1015.95 1016.27 1016.55 1016.87 1017.19 1017.55 1017.91 1018.27 1018.51 1018.55 1018.67 1018.91 1019.11 1019.27 1019.51 1019.75 1020.07 1020.39 1020.71 1021.11 1021.47 1021.63 1021.75 1021.83 1021.91
1010.83 1011.15 1011.47 1011.71 1011.99 1012.31 1012.59 1012.87 1013.11 1013.39 1013.63 1013.95 1014.31 1014.63 1014.95 1015.31 1015.63 1015.99 1016.27 1016.59 1016.91 1017.23 1017.55 1017.83 1018.15 1018.35 1018.39 1018.47 1018.63 1018.79 1018.99 1019.15 1019.43 1019.75 1019.99 1020.19 1020.35 1020.51 1020.75 1020.91 1021.07 1021.23
1011.15 1011.43 1011.75 1012.03 1012.23 1012.47 1012.75 1012.99 1013.23 1013.47 1013.79 1014.03 1014.39 1014.67 1014.99 1015.31 1015.63 1015.95 1016.31 1016.63 1016.95 1017.31 1017.59 1017.83 1018.03 1018.11 1018.15 1018.23 1018.43 1018.55 1018.71 1018.95 1019.15 1019.43 1019.59 1019.75 1019.87 1019.99 1020.11 1020.15 1020.27 1020.47
1011.39 1011.67 1011.91 1012.15 1012.39 1012.67 1012.95 1013.15 1013.39 1013.67 1013.91 1014.11 1014.47 1014.63 1014.99 1015.31 1015.63 1015.87 1016.19 1016.59 1016.95 1017.27 1017.55 1017.71 1017.99 1017.99 1017.91 1017.95 1018.11 1018.27 1018.51 1018.71 1018.95 1019.19 1019.31 1019.43 1019.51 1019.59 1019.63 1019.63 1019.67 1019.79
1011.59 1011.75 1012.03 1012.27 1012.51 1012.75 1012.99 1013.19 1013.47 1013.67 1013.95 1014.11 1014.47 1014.67 1014.99 1015.27 1015.55 1015.87 1016.11 1016.39 1016.75 1017.03 1017.27 1017.63 1017.75 1017.87 1017.79 1017.71 1017.79 1017.95 1018.19 1018.55 1018.79 1018.91 1019.03 1019.03 1019.03 1019.07 1019.15 1019.15 1019.19 1019.27
1011.71 1011.87 1012.07 1012.35 1012.59 1012.87 1013.07 1013.27 1013.47 1013.67 1013.91 1014.23 1014.47 1014.71 1014.99 1015.23 1015.51 1015.75 1016.03 1016.23 1016.51 1016.83 1017.03 1017.35 1017.51 1017.59 1017.59 1017.51 1017.55 1017.67 1017.87 1018.11 1018.35 1018.55 1018.71 1018.75 1018.79 1018.79 1018.79 1018.79 1018.83 1018.83
1011.83 1012.07 1012.19 1012.43 1012.67 1012.95 1013.15 1013.31 1013.43 1013.71 1014.03 1014.35 1014.63 1014.75 1014.95 1015.15 1015.47 1015.67 1015.95 1016.07 1016.27 1016.63 1016.91 1016.99 1017.27 1017.43 1017.51 1017.35 1017.35 1017.43 1017.51 1017.79 1018.03 1018.19 1018.27 1018.35 1018.39 1018.39 1018.43 1018.35 1018.31 1018.35
Wind_Speed
18 16 17 17 17 16 16 17 16 16 16 15 14 14 15 14 15 17 17 16 16 15 14 14 13 13 11 12 12 10 10 10 10 9 10 10 9 11 10 11 11 9
20 19 16 15 15 15 16 17 17 16 16 16 14 13 13 14 16 17 17 16 16 16 15 15 14 14 13 11 12 11 10 10 11 9 10 12 10 11 11 12 11 10
20 19 20 20 18 19 19 17 16 16 15 15 15 14 13 14 16 16 16 16 16 16 16 15 14 14 13 12 12 12 11 11 12 11 10 11 10 10 10 11 10 12
21 21 20 20 18 18 17 15 16 15 15 14 15 14 13 12 15 16 16 17 15 15 15 15 15 13 13 13 12 11 12 11 11 11 11 10 10 10 10 9 10 10
21 20 19 18 17 17 16 16 17 16 16 15 13 14 13 13 15 15 15 15 15 15 14 15 14 13 13 12 13 11 11 11 11 11 11 11 10 10 10 10 11 11
17 18 18 18 18 17 16 18 17 17 16 15 15 13 13 14 14 15 15 15 14 14 14 13 13 12 12 13 13 12 11 11 11 12 12 12 11 10 9 10 11 12
17 17 18 16 17 17 17 17 16 15 15 14 12 13 13 14 14 15 15 14 14 13 14 13 13 13 12 12 12 13 12 12 12 12 13 11 11 12 11 11 11 12
18 16 15 15 17 17 17 16 16 15 14 13 14 13 13 14 15 13 13 14 13 14 14 13 13 13 13 12 13 13 13 10 11 12 13 13 11 12 12 11 11 11
15 15 15 16 17 16 17 16 15 14 12 13 12 12 11 12 13 12 13 13 13 13 13 13 13 13 13 13 13 14 14 12 11 12 13 13 13 12 12 12 11 10
15 15 16 16 16 15 16 15 13 12 12 13 13 11 12 11 12 13 13 13 13 13 14 13 14 13 14 13 14 14 13 13 12 12 12 12 13 12 12 12 11 11
15 14 15 16 16 13 14 13 13 11 11 13 12 12 11 11 11 12 12 13 13 14 14 14 14 14 14 14 13 13 13 12 12 10 11 11 11 11 11 10 10 11
14 14 14 15 14 13 13 13 12 12 12 11 12 12 11 11 12 11 11 12 12 13 14 14 14 14 14 13 13 12 12 12 10 10 11 10 10 10 10 10 10 10
13 13 12 12 12 11 10 11 12 12 12 11 11 12 12 11 11 11 10 12 13 13 14 14 14 13 12 13 12 12 10 9 10 12 12 10 10 10 10 10 10 10
11 11 10 10 9 9 10 10 11 11 11 10 11 12 11 12 12 12 11 12 13 13 13 12 11 12 12 11 11 10 9 8 10 10 10 9 9 10 10 9 10 10
8 8 7 8 8 8 9 9 10 10 10 10 10 10 8 10 11 12 12 12 12 12 12 11 10 9 9 9 9 9 8 8 10 9 9 8 8 8 9 9 9 10
6 6 6 7 7 8 8 8 9 9 9 9 10 9 8 10 10 11 10 11 11 10 9 9 8 7 10 16 14 8 8 7 7 7 8 7 7 8 8 9 9 9
5 6 6 7 6 7 7 8 8 8 9 9 8 7 8 8 9 9 8 8 11 10 10 8 7 7 16 18 19 17 10 7 6 6 7 8 8 8 9 9 9 10
5 6 6 6 6 7 7 7 8 7 7 7 7 7 7 6 7 9 6 6 6 6 7 7 6 11 18 19 19 20 15 8 7 7 8 8 9 10 9 8 11 11
5 5 5 6 6 6 6 5 6 6 6 6 6 6 5 6 6 6 6 6 6 7 6 6 4 14 18 19 19 19 21 17 10 10 10 10 10 10 12 11 10 11
5 5 5 5 5 6 6 5 5 5 4 4 4 4 5 5 5 7 6 5 6 6 5 5 5 12 19 19 19 20 21 18 10 10 10 10 11 11 10 10 11 11
4 4 3 4 5 5 4 4 4 4 4 4 5 5 6 6 6 6 5 7 7 5 5 5 6 15 18 19 19 20 20 18 10 8 9 11 10 10 11 11 11 13
4 4 4 3 4 4 4 4 4 4 5 4 5 5 4 4 4 4 5 6 5 5 5 4 5 16 18 19 19 19 21 13 11 10 11 11 10 10 11 11 12 11
4 3 3 3 4 4 4 4 4 4 5 4 5 5 5 5 5 4 4 5 5 5 5 5 4 12 18 19 18 20 16 12 11 12 13 12 13 12 12 12 12 12
4 3 4 4 4 4 4 4 4 3 4 4 5 4 4 4 4 4 4 5 6 6 6 6 5 10 18 18 18 19 16 12 12 12 12 12 12 10 11 11 13 21
2 3 3 4 4 4 4 5 5 5 4 3 3 3 3 3 4 4 4 5 5 5 9 9 6 8 16 17 18 19 16 12 11 11 11 12 12 13 12 13 13 15
2 3 3 4 4 4 4 4 4 4 4 4 3 3 3 3 4 4 5 5 5 5 6 7 6 5 8 17 17 19 20 14 11 11 11 13 13 12 12 12 12 12
Wind_Direction
214 213 216 215 217 216 215 214 212 209 206 202 201 199 196 194 186 187 189 189 190 188 188 187 186 187 187 188 191 194 196 199 201 205 206 207 211 211 216 220 224 229
217 215 216 217 218 217 217 216 216 211 209 205 204 199 197 190 189 184 186 186 185 188 187 186 187 186 186 187 190 193 198 198 202 202 207 207 208 211 216 218 223 228
218 217 216 216 216 217 216 216 217 216 213 209 203 200 197 191 188 185 183 183 185 186 187 185 185 185 186 188 190 194 198 199 200 203 205 208 209 210 213 216 221 223
218 217 217 219 219 220 218 217 218 217 217 211 207 202 195 188 186 182 182 182 184 184 185 184 185 185 186 189 191 197 200 202 201 201 204 207 209 211 214 214 218 220
219 218 218 219 219 220 219 219 219 216 214 214 209 201 195 183 182 179 180 181 183 181 183 184 183 185 184 190 193 198 199 202 202 202 204 207 207 207 212 215 220 222
221 219 218 217 217 217 216 219 219 217 215 211 207 197 193 182 181 179 180 179 180 178 179 179 181 185 186 190 195 200 201 202 201 200 207 208 208 206 205 212 216 221
221 219 218 216 218 216 217 217 218 216 213 210 199 194 187 184 183 179 177 174 173 175 177 179 182 185 187 191 198 201 203 205 203 202 207 210 208 212 210 209 215 219
224 221 220 217 217 216 217 217 214 213 211 203 198 194 189 186 179 171 167 168 172 176 178 179 182 186 188 192 199 201 204 202 204 204 206 210 210 211 212 214 214 218
225 223 220 218 217 215 215 214 212 209 199 195 193 188 184 178 172 167 168 169 172 175 177 180 183 188 192 194 199 201 203 204 202 205 208 210 212 212 212 214 219 219
226 224 221 219 217 215 214 209 206 200 193 195 192 183 181 180 171 173 170 171 172 175 179 183 185 189 194 197 200 201 204 207 206 207 211 213 213 213 214 216 218 222
228 224 222 218 216 213 211 204 198 193 192 191 188 187 181 175 174 171 170 170 176 178 182 185 188 191 194 197 200 203 206 207 209 210 212 213 213 214 214 217 220 222
228 225 222 219 215 211 206 201 195 192 193 190 187 189 174 172 171 170 170 174 175 180 183 187 189 192 195 197 200 202 205 208 209 212 214 215 215 215 216 218 222 226
228 226 222 218 212 207 200 196 195 194 193 189 183 179 170 171 170 167 172 175 179 181 185 187 189 191 194 197 200 204 206 206 209 212 213 214 216 217 218 220 223 225
232 229 220 214 206 199 197 196 194 193 189 180 175 176 174 173 171 173 175 177 182 182 185 184 187 190 193 196 200 203 202 205 209 211 213 215 215 217 219 222 224 225
231 225 218 209 199 193 193 190 187 185 181 175 176 178 176 176 170 170 169 174 178 178 180 181 185 189 190 192 196 199 196 202 209 210 211 213 215 217 221 222 224 225
223 212 200 194 191 190 187 184 178 174 174 175 175 173 164 171 166 171 167 171 174 174 176 179 182 185 188 194 195 188 192 193 202 206 208 208 211 218 224 226 227 230
210 205 192 193 184 180 179 173 175 174 175 174 169 167 164 166 166 164 162 165 175 176 175 176 176 179 191 202 205 198 185 185 181 201 204 212 216 218 225 225 232 233
206 201 186 190 180 184 181 177 175 169 171 169 164 162 159 148 161 174 152 153 151 158 166 173 170 180 198 207 210 213 201 186 191 200 209 208 212 224 222 223 233 237
203 200 196 186 184 179 179 171 169 167 169 162 164 157 141 149 160 146 153 154 154 163 172 178 160 193 207 211 217 220 228 226 214 214 211 211 213 212 220 225 227 230
204 193 187 181 177 174 170 174 166 170 163 147 135 135 148 150 155 161 161 155 160 164 172 174 153 199 214 221 224 229 232 233 234 231 234 229 219 213 213 215 220 224
193 181 182 176 170 169 169 172 167 156 147 152 155 163 160 166 167 167 164 153 156 168 181 182 180 206 219 225 230 232 234 237 237 231 235 239 236 231 224 225 223 223
179 179 169 166 174 173 173 173 163 157 152 155 155 162 159 156 165 163 165 175 180 168 185 193 200 216 225 229 232 235 238 241 242 242 244 244 244 239 240 243 242 228
180 180 182 177 177 171 174 170 159 163 161 156 153 163 164 172 176 180 181 184 182 179 188 209 195 220 228 232 233 236 238 239 239 243 245 245 245 244 244 243 241 238
189 191 185 179 174 178 179 172 165 167 164 159 164 166 172 178 177 181 186 186 188 194 188 201 203 216 230 236 237 238 235 236 240 241 245 244 246 242 243 246 245 245
191 194 189 178 176 178 170 171 169 170 158 148 162 170 177 171 181 194 198 199 195 194 200 205 210 214 228 236 239 240 238 238 237 238 238 242 243 247 246 244 246 244
181 186 194 182 177 168 164 166 158 150 147 159 167 179 191 198 188 206 204 209 199 182 199 207 201 205 219 237 241 241 238 236 237 237 239 240 242 244 245 245 243 244